TimeCDT,TemperatureF,Dew PointF,Humidity,Sea Level PressureIn,VisibilityMPH,Wind Direction,Wind SpeedMPH,Gust SpeedMPH,PrecipitationIn,Events,Conditions,WindDirDegrees,DateUTC
12:53 AM,80.1,57.9,47,29.99,10.0,East,9.2,-,N/A,,Clear,100,2013-08-20 05:53:00
1:53 AM,78.1,59.0,52,29.99,10.0,ESE,8.1,-,N/A,,Scattered Clouds,110,2013-08-20 06:53:00
2:53 AM,75.9,60.1,58,30.00,10.0,SE,8.1,-,N/A,,Scattered Clouds,130,2013-08-20 07:53:00
3:53 AM,75.9,61.0,60,29.99,10.0,SE,10.4,-,N/A,,Mostly Cloudy,140,2013-08-20 08:53:00
4:53 AM,73.9,62.1,66,30.00,10.0,South,8.1,-,N/A,,Clear,170,2013-08-20 09:53:00
5:53 AM,72.0,63.0,73,30.00,10.0,South,6.9,-,N/A,,Clear,170,2013-08-20 10:53:00
6:53 AM,71.1,63.0,75,30.02,10.0,South,3.5,-,N/A,,Partly Cloudy,170,2013-08-20 11:53:00
7:53 AM,75.0,64.0,69,30.04,10.0,Calm,Calm,-,N/A,,Clear,0,2013-08-20 12:53:00
8:53 AM,79.0,64.9,62,30.05,10.0,Calm,Calm,-,N/A,,Clear,0,2013-08-20 13:53:00
9:53 AM,82.9,66.0,56,30.06,10.0,Calm,Calm,-,N/A,,Clear,0,2013-08-20 14:53:00
10:53 AM,86.0,64.9,49,30.06,10.0,Variable,3.5,-,N/A,,Clear,0,2013-08-20 15:53:00
11:53 AM,88.0,64.0,45,30.06,10.0,South,6.9,-,N/A,,Clear,170,2013-08-20 16:53:00
12:53 PM,89.1,61.0,39,30.04,10.0,Variable,3.5,-,N/A,,Mostly Cloudy,0,2013-08-20 17:53:00
1:53 PM,91.9,59.0,33,30.02,10.0,SSW,6.9,-,N/A,,Partly Cloudy,210,2013-08-20 18:53:00
2:53 PM,91.9,55.0,29,30.00,10.0,South,4.6,-,N/A,,Partly Cloudy,180,2013-08-20 19:53:00
3:53 PM,93.9,55.9,28,29.99,10.0,SSW,5.8,-,N/A,,Partly Cloudy,210,2013-08-20 20:53:00
4:53 PM,93.9,55.9,28,29.97,10.0,SE,10.4,-,N/A,,Clear,130,2013-08-20 21:53:00
5:53 PM,93.9,55.0,27,29.96,10.0,South,9.2,-,N/A,,Partly Cloudy,180,2013-08-20 22:53:00
6:53 PM,91.9,55.0,29,29.96,10.0,SSE,6.9,-,N/A,,Clear,150,2013-08-20 23:53:00
7:53 PM,89.1,57.0,34,29.96,10.0,ESE,3.5,-,N/A,,Clear,120,2013-08-21 00:53:00
8:53 PM,84.9,57.9,40,29.97,10.0,SE,4.6,-,N/A,,Clear,130,2013-08-21 01:53:00
9:53 PM,82.0,57.9,44,29.99,10.0,ESE,5.8,-,N/A,,Clear,120,2013-08-21 02:53:00
10:53 PM,80.1,59.0,48,30.00,10.0,ESE,5.8,-,N/A,,Clear,120,2013-08-21 03:53:00
11:53 PM,81.0,61.0,50,30.02,10.0,South,9.2,-,N/A,,Clear,170,2013-08-21 04:53:00